Retour au catalogue

FENGYUN 1C DEB

ActifSSO
NORAD 37591·DEBRIS·🇨🇳 China

Lancé May 10, 1999 depuis Taiyuan Satellite Launch Center

Loading…

Prochains Passages (prochaines 24 heures)

TLE

FraisSource: Space-Track

Époque: Sep 14, 2026, 15:32 UTC

1 37591U 99025EKK 26257.64742420  .00010402  00000-0  19930-2 0  9992
2 37591  98.4049 212.1268 0057979 220.9762 314.2639 14.62894368704862

Suivez FENGYUN 1C DEB en temps réel avec AllMySat

Download on the App Store